Location: *
(45.5224°N, 122.7471°W)
Time: 04:42:08
(UTC+00:00)

Cosmos 2263 Rocket - Pass Details

Date: 09 April 2020
Orbit: 823 x 849 km, 71.0° (Epoch: 24 May)

Event Time Altitude Azimuth Distance (km) Brightness Sun altitude
Exits shadow 11:59:34 - 185° (S) 2,681 4.5 -16.4°
Reaches altitude 10° 12:00:11 10° 184° (S) 2,453 4.3 -16.3°
Maximum altitude 12:05:37 52° 109° (ESE) 1,049 2.9 -15.5°
Drops below altitude 10° 12:11:07 10° 35° (NE) 2,481 5.7 -14.7°
Sets 12:13:38 0° 31° (NNE) 3,422 6.4 -14.3°
